Weather History for Doha, Qatar

Change the Weather History Date:

Friday, September 27, 2013

  Actual Average Record
Temperature  
Mean Temperature 88 °F -  
Max Temperature 96 °F 96 °F 107 °F (1997)
Min Temperature 81 °F 75 °F 80 °F (2000)
Cooling Degree Days 24    
Growing Degree Days 38 (Base 50)    
Moisture  
Dew Point 68 °F    
Average Humidity 49    
Maximum Humidity 66    
Minimum Humidity 34    
Precipitation  
Precipitation 0.00 in 0.00 in - ()
Sea Level Pressure  
Sea Level Pressure 29.72 in    
Wind  
Wind Speed 9 mph ()    
Max Wind Speed 23 mph    
Max Gust Speed -    
Visibility 5.7 miles    
Events      
Averages and records for this station are not official NWS values.
T = Trace of Precipitation, MM = Missing Value Source: Averaged Metar Reports

Daily Weather History Graph

Daily Weather History Graph

Search for Another Location

Airport:

Trip Planner

Search our weather history database for the weather conditions in past years. The results will help you decide how hot, cold, wet, or windy it might be!

Date:

Astronomy

Sep. 27, 2013 Rise Set
Actual Time 5:24 AM AST 5:24 PM AST
Civil Twilight 5:01 AM AST 5:47 PM AST
Nautical Twilight 4:34 AM AST 6:14 PM AST
Astronomical Twilight 4:08 AM AST 6:40 PM AST
Moon 11:23 PM AST (9/27) 12:13 PM AST (9/27)
Length of Visible Light 12h 46m
Length of Day
12h 00m
Waning Gibbous, 48% of the Moon is Illuminated
Sep 27
Waning Gibbous
Oct 5
New
Oct 12
First Quarter
Oct 19
Full
Oct 27
Last Quarter

Hourly Weather History & Observations

Time (AST) Temp. Heat Index Dew Point Humidity Pressure Visibility Wind Dir Wind Speed Gust Speed Precip Events Conditions
12:00 AM 84.2 °F 85.6 °F 64.4 °F 51% 29.74 in - West 4.6 mph - N/A   Clear
1:00 AM 84.2 °F 85.6 °F 64.4 °F 51% 29.71 in - WSW 5.8 mph - N/A   Clear
2:00 AM 82.4 °F 83.9 °F 64.4 °F 54% 29.71 in - West 5.8 mph - N/A   Clear
3:00 AM 83 °F - 64 °F 44% 29.71 in 6 mi West 5.8 mph - -   Clear
3:00 AM 82.4 °F 83.9 °F 64.4 °F 54% 29.71 in - West 5.8 mph - N/A   Clear
3:30 AM 82.4 °F 83.9 °F 64.4 °F 54% 29.71 in - West 6.9 mph - N/A   Clear
4:00 AM 82.4 °F 83.9 °F 64.4 °F 54% 29.71 in - West 8.1 mph - N/A   Clear
4:30 AM 82.4 °F 83.9 °F 64.4 °F 54% 29.71 in - West 5.8 mph - N/A   Clear
5:00 AM 82.4 °F 83.9 °F 64.4 °F 54% 29.71 in - West 6.9 mph - N/A   Clear
5:30 AM 82.4 °F 84.6 °F 66.2 °F 58% 29.74 in - West 5.8 mph - N/A   Clear
6:00 AM 82.4 °F 83.9 °F 64.4 °F 54% 29.74 in - West 8.1 mph - N/A   Clear
6:30 AM 84.2 °F 85.6 °F 64.4 °F 51% 29.74 in - West 8.1 mph - N/A   Clear
7:00 AM 86.0 °F 87.3 °F 64.4 °F 48% 29.74 in - WNW 9.2 mph - N/A   Clear
7:30 AM 86.0 °F 86.6 °F 62.6 °F 45% 29.77 in 5.6 mi WNW 11.5 mph - N/A   Unknown
8:00 AM 87.8 °F 89.4 °F 64.4 °F 46% 29.77 in 5.6 mi WNW 10.4 mph - N/A   Unknown
8:30 AM 87.8 °F 89.4 °F 64.4 °F 46% 29.77 in 5.0 mi WNW 10.4 mph - N/A   Unknown
9:00 AM 90 °F - 65 °F 34% 29.78 in 5 mi NW 10.4 mph - -   Widespread Dust
9:00 AM 89.6 °F 91.1 °F 64.4 °F 43% 29.77 in 5.0 mi NW 10.4 mph - N/A   Unknown
9:30 AM 91.4 °F 94.0 °F 66.2 °F 43% 29.77 in 4.3 mi NW 13.8 mph - N/A   Unknown
10:00 AM 93.2 °F 96.2 °F 66.2 °F 41% 29.77 in 4.3 mi NW 12.7 mph - N/A   Unknown
10:30 AM 93.2 °F 96.2 °F 66.2 °F 41% 29.74 in 4.3 mi NW 13.8 mph - N/A   Unknown
11:00 AM 95.0 °F 98.5 °F 66.2 °F 39% 29.74 in 4.3 mi NNW 13.8 mph - N/A   Partly Cloudy
11:30 AM 95.0 °F 98.5 °F 66.2 °F 39% 29.74 in 4.3 mi NNW 15.0 mph - N/A   Partly Cloudy
12:00 PM 95.0 °F 99.5 °F 68.0 °F 41% 29.71 in 4.3 mi NW 13.8 mph - N/A   Partly Cloudy
12:30 PM 95.0 °F 98.5 °F 66.2 °F 39% 29.71 in 5.6 mi North 17.3 mph - N/A   Partly Cloudy
1:00 PM 95.0 °F 99.5 °F 68.0 °F 41% 29.68 in 6.2 mi North 18.4 mph - N/A   Scattered Clouds
1:30 PM 95.0 °F 101.3 °F 69.8 °F 44% 29.68 in 6.2 mi North 17.3 mph - N/A   Partly Cloudy
2:00 PM 95.0 °F 101.3 °F 69.8 °F 44% 29.68 in 6.2 mi North 18.4 mph - N/A   Partly Cloudy
2:30 PM 93.2 °F 98.8 °F 69.8 °F 46% 29.68 in 6.2 mi North 23.0 mph - N/A   Partly Cloudy
3:00 PM 93 °F - 71 °F 38% 29.69 in 7 mi North 21.9 mph - -   Scattered Clouds
3:00 PM 93.2 °F 98.8 °F 69.8 °F 46% 29.68 in 6.2 mi North 21.9 mph - N/A   Partly Cloudy
3:30 PM 93.2 °F 100.5 °F 71.6 °F 49% 29.68 in 6.2 mi North 19.6 mph - N/A   Partly Cloudy
4:00 PM 93.2 °F 100.5 °F 71.6 °F 49% 29.68 in 6.2 mi North 17.3 mph - N/A   Partly Cloudy
4:30 PM 91.4 °F 98.4 °F 71.6 °F 52% 29.68 in 6.2 mi North 18.4 mph - N/A   Partly Cloudy
5:00 PM 91.4 °F 98.4 °F 71.6 °F 52% 29.68 in 6.2 mi North 17.3 mph - N/A   Partly Cloudy
6:00 PM 89.6 °F 96.2 °F 71.6 °F 55% 29.71 in 6.2 mi North 15.0 mph - N/A   Partly Cloudy
6:30 PM 89.6 °F 93.4 °F 68.0 °F 49% 29.71 in 6.2 mi NNW 12.7 mph - N/A   Partly Cloudy
7:00 PM 87.8 °F 92.6 °F 69.8 °F 55% 29.71 in 6.2 mi NNW 11.5 mph - N/A   Partly Cloudy
7:30 PM 87.8 °F 92.6 °F 69.8 °F 55% 29.74 in 6.2 mi NNW 11.5 mph - N/A   Partly Cloudy
8:00 PM 87.8 °F 92.6 °F 69.8 °F 55% 29.74 in 6.2 mi NW 10.4 mph - N/A   Partly Cloudy
8:30 PM 87.8 °F 92.6 °F 69.8 °F 55% 29.74 in 6.2 mi NNW 11.5 mph - N/A   Partly Cloudy
9:00 PM 87 °F - 69 °F 47% 29.75 in 7 mi NNW 9.2 mph - -   Scattered Clouds
9:00 PM 87.8 °F 92.6 °F 69.8 °F 55% 29.74 in - NNW 9.2 mph - N/A   Clear
9:30 PM 87.8 °F 92.6 °F 69.8 °F 55% 29.74 in - NNW 10.4 mph - N/A   Clear
10:00 PM 86.0 °F 91.8 °F 71.6 °F 62% 29.74 in - NNW 11.5 mph - N/A   Clear
10:30 PM 86.0 °F 91.8 °F 71.6 °F 62% 29.74 in - NNW 10.4 mph - N/A   Clear
11:00 PM 86.0 °F 91.8 °F 71.6 °F 62% 29.74 in 6.2 mi NNW 10.4 mph - N/A   Partly Cloudy
11:30 PM 86.0 °F 93.4 °F 73.4 °F 66% 29.71 in 6.2 mi NNW 9.2 mph - N/A   Partly Cloudy